Location: Mountain View
(37.3861°N, 122.0839°W)
Time: 00:52:56
(UTC-07:00)

Amateur Radio Satellites - All Passes

Search period start: 24 May 2017 00:22
Search period end: 25 May 2017 00:22
Location: Mountain View, 37.3861°N, 122.0839°W

Satellite Date Start Highest point End Downlink Frequencies (MHz)
Time Altitude Azimuth
RS-15 24 May 00:43:15 00:46:42 12° 94° (E) 00:50:11 29.354- 29.394
VELOX 1 24 May 00:43:36 00:48:01 83° 76° (ENE) 00:52:27 145.980
SPROUT 24 May 01:01:18 01:05:29 61° 260° (W) 01:09:41 437.525
NANOSAT C BR1 24 May 01:05:10 01:09:26 89° 123° (ESE) 01:13:41 145.865
POLYITAN 1 24 May 01:06:46 01:11:03 79° 283° (WNW) 01:15:19 437.675
ESTCUBE 1 24 May 01:13:54 01:15:48 12° 269° (W) 01:17:42 437.505/2401.250
QB50P2 24 May 01:15:20 01:19:31 56° 286° (WNW) 01:23:41 145.880/145.840
DUCHIFAT 1 24 May 01:17:37 01:21:50 73° 285° (WNW) 01:26:03 145.980
UKube-1 24 May 01:27:49 01:32:03 60° 74° (ENE) 01:36:18 .
DX 1 24 May 01:29:08 01:33:30 87° 260° (W) 01:37:52 434.975-435.025
Oscar 19 24 May 01:34:51 01:38:16 18° 93° (E) 01:41:38 437.125/150
50 SAT 24 May 01:43:12 01:46:14 28° 263° (W) 01:49:17 437.505
AIST 2D 24 May 01:43:43 01:44:16 10° 293° (WNW) 01:44:48 435.315
BUGSAT 1 24 May 01:48:02 01:52:09 73° 101° (E) 01:56:19 437.445
EO-79 24 May 01:54:17 01:57:37 23° 291° (WNW) 02:00:58 145.935-145.965
YUBILEINY 24 May 02:09:33 02:18:16 88° 96° (E) 02:27:05 435.215
Gurwin Techsat 1B 24 May 02:26:44 02:31:34 35° 97° (E) 02:36:22 435.225
ITUPSAT 1 24 May 02:29:48 02:33:34 24° 68° (ENE) 02:37:21 437.325
RS-15 24 May 02:44:49 02:56:35 65° 113° (ESE) 03:08:44 29.354- 29.394
BEESAT 24 May 03:04:21 03:08:58 56° 74° (ENE) 03:13:39 436.000
UKube-1 24 May 03:07:57 03:08:25 10° 269° (W) 03:08:51 .
Oscar 19 24 May 03:12:50 03:17:49 49° 288° (WNW) 03:22:44 437.125/150
MOZHAYETS 4 24 May 03:13:06 03:17:15 35° 71° (ENE) 03:21:26
Tancredo 1 24 May 03:50:40 03:53:27 31° 33° (NNE) 03:56:13 437.200
CUBESAT XI-V 24 May 03:52:37 03:55:35 17° 66° (ENE) 03:58:32 437.345
ISS 24 May 03:53:58 03:56:44 24° 31° (NNE) 03:59:28 437.550
Gurwin Techsat 1B 24 May 04:06:56 04:11:20 27° 293° (WNW) 04:15:44 435.225
ITUPSAT 1 24 May 04:06:57 04:11:12 32° 263° (W) 04:15:29 437.325
ITAMSAT 1 24 May 04:07:53 04:12:51 43° 99° (E) 04:17:47 435.822/435.867
YUBILEINY 24 May 04:10:49 04:16:14 18° 295° (WNW) 04:21:42 435.215
AO-7 24 May 04:14:46 04:22:47 47° 101° (ESE) 04:30:44 .
KKS-1 24 May 04:27:33 04:31:30 32° 71° (ENE) 04:35:27 437.445
JUGNU 24 May 04:30:44 04:31:22 10° 168° (SSE) 04:32:02 437.505
O/OREOS (USA 219) 24 May 04:37:32 04:41:59 52° 107° (ESE) 04:46:28 437.305
BEESAT 24 May 04:44:47 04:47:03 13° 268° (W) 04:49:21 436.000
MOZHAYETS 4 24 May 04:51:05 04:54:28 20° 266° (W) 04:57:52
PCSat 24 May 04:56:53 05:01:48 34° 55° (NE) 05:06:42 145.827
RS-15 24 May 04:58:34 05:09:48 41° 316° (NW) 05:21:18 29.354- 29.394
STARS 24 May 05:06:31 05:10:30 36° 71° (ENE) 05:14:30 437.465
AO-85 24 May 05:26:15 05:30:26 60° 118° (ESE) 05:34:25 145.980
Tancredo 1 24 May 05:26:43 05:29:05 20° 229° (SW) 05:31:26 437.200
CUBESAT XI-V 24 May 05:28:00 05:32:32 47° 261° (W) 05:37:05 437.345
ISS 24 May 05:30:15 05:33:15 33° 227° (SW) 05:36:13 437.550
ITAMSAT 1 24 May 05:48:06 05:51:59 22° 295° (WNW) 05:55:52 435.822/435.867
DOVE 4 24 May 05:50:39 05:52:35 13° 93° (E) 05:54:33 437.250
KKS-1 24 May 06:04:49 06:08:05 20° 265° (W) 06:11:21 437.445
AO-7 24 May 06:07:51 06:15:18 38° 298° (WNW) 06:22:44 .
BEESAT 2 24 May 06:11:45 06:14:28 18° 110° (ESE) 06:17:12 435.950
JUGNU 24 May 06:16:35 06:19:32 14° 179° (S) 06:22:29 437.505
O/OREOS (USA 219) 24 May 06:19:02 06:21:43 15° 303° (WNW) 06:24:23 437.305
KAITUO 1B 24 May 06:21:44 06:22:56 11° 92° (E) 06:24:07 145.475/437.950
BEESAT 3 24 May 06:36:54 06:40:50 74° 301° (WNW) 06:44:51 437.485
PCSat 24 May 06:40:22 06:45:05 31° 252° (WSW) 06:49:46 145.827
LilacSat-2 24 May 06:41:12 06:44:36 28° 97° (E) 06:47:58 437.200
STARS 24 May 06:44:02 06:46:55 17° 266° (W) 06:49:50 437.465
HO-68 24 May 06:55:55 06:56:40 10° 88° (E) 06:57:25 435.675
AO-85 24 May 07:09:13 07:11:08 13° 314° (NW) 07:13:02 145.980
XW-2D 24 May 07:18:34 07:22:26 89° 101° (ESE) 07:26:16 145.860 - 145.880
RS-15 24 May 07:19:30 07:27:15 18° 349° (NNW) 07:34:58 29.354- 29.394
STRAND 1 24 May 07:20:43 07:25:34 48° 72° (ENE) 07:30:28 437.568
CUTE-I 24 May 07:22:08 07:27:27 67° 102° (ESE) 07:32:46 437.470
XW-2B 24 May 07:26:27 07:30:18 75° 283° (WNW) 07:34:08 145.730 - 145.750
DOVE 4 24 May 07:26:33 07:30:29 43° 286° (WNW) 07:34:29 437.250
XW-2C 24 May 07:40:04 07:43:49 48° 285° (WNW) 07:47:31 145.795 - 145.815
XW-2F 24 May 07:41:10 07:44:54 49° 285° (WNW) 07:48:35 145.980 - 146.000
BEESAT 2 24 May 07:48:19 07:51:57 34° 306° (NW) 07:55:38 435.950
NUDT-PHONESAT 24 May 07:48:47 07:52:26 48° 285° (WNW) 07:56:03 437.300
KAITUO 1B 24 May 07:53:31 07:57:07 41° 286° (WNW) 08:00:41 145.475/437.950
JUGNU 24 May 08:05:40 08:07:42 12° 189° (S) 08:09:43 437.505
SEEDS 24 May 08:11:18 08:14:52 26° 96° (E) 08:18:24 437.485
M-CUBED/EXP-1 PRIME 24 May 08:13:07 08:17:20 50° 70° (ENE) 08:21:17 437.505
LilacSat-2 24 May 08:16:01 08:18:39 18° 291° (WNW) 08:21:16 437.200
SO-50 24 May 08:21:05 08:25:34 59° 57° (ENE) 08:30:01 436.795
NO-84 24 May 08:35:57 08:38:59 18° 123° (ESE) 08:41:59 435.350 FM
HO-68 24 May 08:38:10 08:45:24 75° 104° (ESE) 08:52:35 435.675
SRMSAT 24 May 08:39:22 08:42:12 14° 177° (S) 08:45:01 437.500
AO-73 24 May 08:49:51 08:52:50 17° 93° (E) 08:55:51 145.935
CUTE 1.7 + AOD 2 24 May 08:51:57 08:56:10 60° 285° (WNW) 09:00:20 437.475
XW-2A 24 May 09:01:21 09:04:36 40° 286° (WNW) 09:07:49 145.665 - 145.685
ZACube-1 24 May 09:01:32 09:05:20 26° 95° (E) 09:09:09 437.345
STRAND 1 24 May 09:01:36 09:04:58 18° 267° (W) 09:08:22 437.568
CUBEBUG 2 24 May 09:01:39 09:06:14 79° 101° (E) 09:10:56 437.445
CUTE-I 24 May 09:03:59 09:06:53 15° 298° (WNW) 09:09:48 437.470
UWE-3 24 May 09:17:41 09:22:16 71° 101° (ESE) 09:26:54 435.000/436.395/437.385
AAUSAT CUBESAT 2 24 May 09:18:38 09:22:47 78° 100° (E) 09:26:53 437.432
PRISM 24 May 09:28:24 09:31:48 25° 70° (ENE) 09:35:13 437.425
RS-15 24 May 09:37:14 09:46:26 23° 26° (NNE) 09:55:21 29.354- 29.394
TIGRISAT 24 May 09:37:36 09:40:52 22° 68° (ENE) 09:44:10 435.000
SEEDS 24 May 09:47:06 09:50:24 22° 291° (WNW) 09:53:40 437.485
M-CUBED/EXP-1 PRIME 24 May 09:49:52 09:51:52 13° 261° (W) 09:53:50 437.505
Oscar 11 24 May 10:01:23 10:05:46 87° 102° (ESE) 10:10:06 .
DELFI C3 24 May 10:02:13 10:05:12 20° 95° (E) 10:08:09 145.870
SO-50 24 May 10:03:30 10:05:29 13° 252° (WSW) 10:07:28 436.795
UNISAT 6 24 May 10:07:30 10:11:38 53° 74° (ENE) 10:15:51 437.425
NO-84 24 May 10:11:58 10:16:17 56° 317° (NW) 10:20:29 435.350 FM
AO-73 24 May 10:24:56 10:29:11 40° 287° (WNW) 10:33:27 145.935
HO-68 24 May 10:27:24 10:32:21 20° 301° (WNW) 10:37:18 435.675
FO-29 24 May 10:27:54 10:33:06 84° 76° (ENE) 10:38:21 435.910
SRMSAT 24 May 10:28:12 10:30:30 12° 187° (S) 10:32:50 437.500
ZACube-1 24 May 10:37:41 10:41:31 27° 290° (WNW) 10:45:22 437.345
AIST 2D 24 May 10:42:19 10:43:40 12° 67° (ENE) 10:45:00 435.315
EO-88 24 May 10:43:35 10:47:09 47° 99° (E) 10:50:42 145.990 - 145.960
UWE-3 24 May 10:56:52 10:58:06 11° 296° (WNW) 10:59:21 435.000/436.395/437.385
PRISM 24 May 11:03:42 11:07:00 23° 264° (W) 11:10:18 437.425
EO-79 24 May 11:09:44 11:12:17 16° 67° (ENE) 11:14:51 145.935-145.965
TIGRISAT 24 May 11:13:45 11:17:24 27° 264° (W) 11:21:05 435.000
ESTCUBE 1 24 May 11:30:26 11:32:39 13° 92° (E) 11:34:50 437.505/2401.250
LO-87 24 May 11:35:42 11:38:39 24° 96° (E) 11:41:36 145.935 - 145.965
DELFI C3 24 May 11:36:42 11:39:54 24° 290° (WNW) 11:43:05 145.870
UNISAT 6 24 May 11:47:23 11:48:40 11° 269° (W) 11:49:58 437.425
RS-15 24 May 11:49:54 12:02:03 65° 54° (NE) 12:13:33 29.354- 29.394
NO-84 24 May 11:52:37 11:54:38 13° 335° (NNW) 11:56:35 435.350 FM
NANOSAT C BR1 24 May 11:54:58 11:58:58 48° 73° (ENE) 12:02:59 145.865
POLYITAN 1 24 May 11:56:57 12:01:02 57° 75° (ENE) 12:05:10 437.675
QB50P2 24 May 12:05:22 12:09:33 80° 77° (ENE) 12:13:46 145.880/145.840
DUCHIFAT 1 24 May 12:06:59 12:11:04 60° 74° (ENE) 12:15:10 145.980
AIST 2D 24 May 12:13:16 12:16:30 35° 262° (W) 12:19:45 435.315
YUBILEINY 24 May 12:22:35 12:30:46 40° 75° (ENE) 12:38:53 435.215
BUGSAT 1 24 May 12:35:46 12:39:26 36° 72° (ENE) 12:43:06 437.445
VELOX 1 24 May 12:36:37 12:39:34 18° 94° (E) 12:42:31 145.980
EO-79 24 May 12:43:49 12:47:42 38° 262° (W) 12:51:38 145.935-145.965
SPROUT 24 May 12:49:17 12:52:49 25° 96° (E) 12:56:21 437.525
Oscar 19 24 May 12:49:36 12:53:33 22° 66° (ENE) 12:57:30 437.125/150
ESTCUBE 1 24 May 13:05:20 13:09:42 50° 287° (WNW) 13:14:02 437.505/2401.250
50 SAT 24 May 13:08:30 13:10:49 17° 95° (E) 13:13:06 437.505
LO-87 24 May 13:09:34 13:11:53 17° 291° (WNW) 13:14:13 145.935 - 145.965
UKube-1 24 May 13:19:08 13:20:27 11° 92° (E) 13:21:45 .
DX 1 24 May 13:20:14 13:23:14 18° 94° (E) 13:26:13 434.975-435.025
AO-7 24 May 13:26:59 13:28:28 11° 46° (NE) 13:29:56 .
NANOSAT C BR1 24 May 13:33:18 13:34:55 12° 268° (W) 13:36:30 145.865
Gurwin Techsat 1B 24 May 13:45:42 13:50:44 46° 71° (ENE) 13:55:47 435.225
AO-85 24 May 13:59:09 14:02:39 27° 53° (NE) 14:06:18 145.980
RS-15 24 May 14:03:23 14:13:41 35° 256° (WSW) 14:23:35 29.354- 29.394
VELOX 1 24 May 14:12:06 14:16:06 36° 289° (WNW) 14:20:06 145.980
BUGSAT 1 24 May 14:12:39 14:14:54 15° 267° (W) 14:17:09 437.445
YUBILEINY 24 May 14:19:25 14:27:29 42° 273° (W) 14:35:33 435.215
SPROUT 24 May 14:25:09 14:28:36 24° 291° (WNW) 14:32:04 437.525
Oscar 19 24 May 14:27:40 14:32:33 41° 261° (W) 14:37:28 437.125/150
50 SAT 24 May 14:40:59 14:43:37 21° 289° (WNW) 14:46:13 437.505
O/OREOS (USA 219) 24 May 14:49:31 14:54:02 72° 69° (ENE) 14:58:30 437.305
UKube-1 24 May 14:52:34 14:56:46 54° 286° (WNW) 15:00:57 .
DX 1 24 May 14:55:34 14:59:28 34° 289° (WNW) 15:03:22 434.975-435.025
BEESAT 3 24 May 14:55:42 14:59:19 31° 53° (NE) 15:02:54 437.485
BEESAT 24 May 15:07:35 15:10:37 17° 93° (E) 15:13:38 436.000
AO-7 24 May 15:11:24 15:19:21 54° 66° (ENE) 15:27:21 .
ITAMSAT 1 24 May 15:23:47 15:28:48 54° 72° (ENE) 15:33:50 435.822/435.867
Gurwin Techsat 1B 24 May 15:27:03 15:30:52 20° 266° (W) 15:34:42 435.225
AO-85 24 May 15:39:34 15:42:56 24° 247° (WSW) 15:46:26 145.980
BEESAT 2 24 May 16:07:17 16:11:21 70° 58° (ENE) 16:15:20 435.950
ITUPSAT 1 24 May 16:08:40 16:13:29 74° 102° (ESE) 16:18:17 437.325
BEESAT 3 24 May 16:33:47 16:36:40 19° 249° (WSW) 16:39:32 437.485
BEESAT 24 May 16:44:01 16:48:35 46° 288° (WNW) 16:53:09 436.000
MOZHAYETS 4 24 May 16:46:30 16:51:09 75° 283° (WNW) 16:55:46
NO-84 24 May 16:48:29 16:51:54 36° 39° (NE) 16:55:00 435.350 FM
DOVE 4 24 May 16:54:43 16:56:43 13° 66° (ENE) 16:58:41 437.250
AO-7 24 May 17:05:17 17:12:20 31° 263° (W) 17:19:30 .
ITAMSAT 1 24 May 17:05:27 17:08:33 16° 267° (W) 17:11:40 435.822/435.867
CUTE-I 24 May 17:06:51 17:07:59 11° 60° (ENE) 17:09:08 437.470
LilacSat-2 24 May 17:23:03 17:24:21 11° 66° (ENE) 17:25:39 437.200
CUBESAT XI-V 24 May 17:26:24 17:30:55 49° 99° (E) 17:35:22 437.345
ITUPSAT 1 24 May 17:49:04 17:50:39 12° 298° (WNW) 17:52:13 437.325
KKS-1 24 May 17:56:09 18:00:36 88° 99° (E) 18:05:02 437.445
XW-2D 24 May 17:57:51 18:01:11 29° 72° (ENE) 18:04:31 145.860 - 145.880
XW-2B 24 May 18:05:33 18:09:02 35° 73° (ENE) 18:12:33 145.730 - 145.750
XW-2C 24 May 18:18:50 18:22:32 55° 75° (ENE) 18:26:17 145.795 - 145.815
XW-2F 24 May 18:19:32 18:23:13 53° 75° (ENE) 18:26:57 145.980 - 146.000
NUDT-PHONESAT 24 May 18:25:37 18:29:11 49° 75° (ENE) 18:32:48 437.300
NO-84 24 May 18:26:48 18:29:08 17° 237° (WSW) 18:31:21 435.350 FM
DOVE 4 24 May 18:29:18 18:33:59 58° 260° (W) 18:38:25 437.250
KAITUO 1B 24 May 18:30:53 18:34:35 60° 75° (ENE) 18:38:19 145.475/437.950
STARS 24 May 18:33:23 18:37:47 85° 285° (WNW) 18:42:11 437.465
CUTE-I 24 May 18:41:54 18:47:13 89° 74° (ENE) 18:52:33 437.470
LilacSat-2 24 May 18:54:30 18:58:10 45° 261° (W) 19:01:53 437.200
SEEDS 24 May 19:01:52 19:04:20 15° 67° (ENE) 19:06:47 437.485
HO-68 24 May 19:04:26 19:11:09 45° 67° (ENE) 19:17:54 435.675
CUBESAT XI-V 24 May 19:05:06 19:07:49 16° 295° (WNW) 19:10:32 437.345
XW-2A 24 May 19:30:21 19:33:30 39° 74° (ENE) 19:36:40 145.665 - 145.685
XW-2D 24 May 19:33:02 19:35:24 16° 267° (W) 19:37:47 145.860 - 145.880
STRAND 1 24 May 19:34:03 19:37:42 19° 94° (E) 19:41:19 437.568
PCSat 24 May 19:36:11 19:41:19 46° 111° (ESE) 19:46:28 145.827
XW-2B 24 May 19:41:29 19:43:20 13° 268° (W) 19:45:12 145.730 - 145.750
CUTE 1.7 + AOD 2 24 May 19:41:56 19:46:10 70° 76° (ENE) 19:50:27 437.475
ZACube-1 24 May 19:56:32 19:58:56 15° 66° (ENE) 20:01:22 437.345
CUBEBUG 2 24 May 19:57:53 20:01:50 47° 74° (ENE) 20:05:52 437.445
AAUSAT CUBESAT 2 24 May 20:06:26 20:10:18 37° 73° (ENE) 20:14:10 437.432
UWE-3 24 May 20:12:46 20:16:40 40° 73° (ENE) 20:20:39 435.000/436.395/437.385
Tancredo 1 24 May 20:21:59 20:24:25 22° 132° (SE) 20:26:53 437.200
ISS 24 May 20:33:03 20:35:25 19° 130° (SE) 20:37:49 437.550
SEEDS 24 May 20:35:36 20:39:38 42° 262° (W) 20:43:41 437.485
HO-68 24 May 20:52:42 20:58:56 32° 263° (W) 21:05:14 435.675
Oscar 11 24 May 20:53:47 20:57:57 49° 74° (ENE) 21:02:10 .
STRAND 1 24 May 21:12:09 21:17:03 45° 288° (WNW) 21:21:55 437.568
AO-73 24 May 21:17:52 21:22:00 67° 259° (WSW) 21:26:16 145.935
EO-88 24 May 21:20:25 21:22:39 16° 69° (ENE) 21:24:55 145.990 - 145.960
PCSat 24 May 21:20:31 21:24:53 24° 308° (NW) 21:29:17 145.827
M-CUBED/EXP-1 PRIME 24 May 21:28:10 21:31:18 41° 104° (ESE) 21:34:23 437.505
ZACube-1 24 May 21:30:52 21:34:49 41° 262° (W) 21:38:52 437.345
CUBEBUG 2 24 May 21:37:12 21:38:43 12° 269° (W) 21:40:17 437.445
FO-29 24 May 21:39:40 21:42:40 13° 91° (E) 21:45:47 435.910
AAUSAT CUBESAT 2 24 May 21:43:21 21:45:52 15° 267° (W) 21:48:24 437.432
UWE-3 24 May 21:51:08 21:53:19 14° 268° (W) 21:55:32 435.000/436.395/437.385
Tancredo 1 24 May 21:57:19 22:00:05 29° 327° (NNW) 22:02:50 437.200
UNISAT 6 24 May 22:02:17 22:04:43 14° 92° (E) 22:07:10 437.425
ISS 24 May 22:08:36 22:11:43 38° 325° (NW) 22:14:50 437.550
DELFI C3 24 May 22:18:56 22:22:52 59° 259° (W) 22:26:50 145.870
ESTCUBE 1 24 May 22:29:38 22:30:34 11° 63° (ENE) 22:31:30 437.505/2401.250
Oscar 11 24 May 22:32:27 22:34:20 13° 269° (W) 22:36:13 .
SO-50 24 May 22:33:37 22:37:38 30° 113° (ESE) 22:41:37 436.795
PRISM 24 May 22:45:57 22:49:56 52° 100° (E) 22:53:53 437.425
EO-88 24 May 22:52:54 22:56:05 28° 263° (W) 22:59:18 145.990 - 145.960
TIGRISAT 24 May 23:05:56 23:10:31 67° 102° (ESE) 23:15:10 435.000
FO-29 24 May 23:21:41 23:28:09 89° 104° (ESE) 23:35:26 435.910
VELOX 1 24 May 23:32:55 23:35:00 13° 64° (ENE) 23:37:05 145.980
UNISAT 6 24 May 23:37:12 23:41:39 51° 286° (WNW) 23:46:09 437.425
AIST 2D 24 May 23:40:45 23:43:16 18° 94° (E) 23:45:45 435.315
SPROUT 24 May 23:41:36 23:44:05 15° 66° (ENE) 23:46:34 437.525
LO-87 24 May 23:42:15 23:45:45 57° 260° (W) 23:49:15 145.935 - 145.965
POLYITAN 1 24 May 23:46:12 23:47:16 11° 91° (E) 23:48:21 437.675
QB50P2 24 May 23:53:28 23:55:57 15° 93° (E) 23:58:25 145.880/145.840
DUCHIFAT 1 24 May 23:55:16 23:56:26 11° 91° (E) 23:57:36 145.980
ESTCUBE 1 25 May 00:02:12 00:06:43 72° 258° (WSW) 00:11:16 437.505/2401.250
SO-50 25 May 00:14:07 00:18:03 27° 309° (NW) 00:21:57 436.795
DX 1 25 May 00:14:50 00:16:55 13° 64° (ENE) 00:19:00 434.975-435.025
